Location: Perugia
(43.1330°N, 12.3670°E)
Time: 14:08:59
(UTC+01:00)

ISS - Visible Passes

Search period start: 24 January 2019 00:00
Search period end: 03 February 2019 00:00
Orbit: 404 x 410 km, 51.6° (Epoch: 24 January)

Date Brightness Start Highest point End Pass type
(mag) Time Alt. Az. Time Alt. Az. Time Alt. Az.
24 Jan -2.5 17:46:20 10° SSW 17:49:12 27° SE 17:52:04 10° ENE visible
24 Jan -2.2 19:22:28 10° W 19:24:47 34° WNW 19:24:47 34° WNW visible
25 Jan -3.7 18:30:55 10° WSW 18:34:12 70° NNW 18:35:41 30° NE visible
26 Jan -2.0 19:16:44 10° WNW 19:19:13 26° NNW 19:19:13 26° NNW visible
27 Jan -2.7 18:24:58 10° W 18:28:03 36° NNW 18:30:00 19° NE visible
28 Jan -1.8 19:11:04 10° WNW 19:13:26 20° NNW 19:13:26 20° NNW visible
29 Jan -2.1 18:19:14 10° WNW 18:21:59 24° NNW 18:24:07 14° NE visible
30 Jan -1.7 19:05:14 10° NW 19:07:30 18° N 19:07:30 18° N visible
31 Jan -1.8 18:13:28 10° NW 18:15:57 19° N 18:18:09 11° NE visible
31 Jan -0.7 19:50:34 10° NW 19:50:52 12° NW 19:50:52 12° NW visible
01 Feb -1.9 18:59:06 10° NW 19:01:32 20° N 19:01:32 20° N visible
02 Feb -1.9 18:07:30 10° NW 18:09:54 18° N 18:12:12 10° NE visible
02 Feb -1.1 19:44:05 10° NW 19:44:55 16° NW 19:44:55 16° NW visible
